Погода в Осташкове

Поиск расширенной информации на нашем сайте:

Полезная информация:

Новости сайта



02.01.2020
Опубликован Долгосрочный прогноз погоды по городам России и ближнего зарубежья на январь 2020 года.
Карты: Прогноз на январь и февраль 2020 года, Сравнение прогнозируемой аномалии приземной температуры воздуха на январь 2020 года по разным моделям.




Погода в Осташкове - сегодня

Время (UTC), дата Ветер
(°,м/с) 
Видим.   Явления Облачность Т
(°С)
Тd
(°С)
f(%) Тe
(°С)
Pmin
(гПа)
dP
(гПа)
Po
(мм)
O2
(г/м3)
Тmin Tmax R s Состояние
почвы
12 29.11.20 090 (В) 5-10{10}  4000 м  слаб. ливневой снег  10/10 300 м кучево-дожд. 
[Cb cap]
+0.3 -0.8 92 -3  1024.8  -0.8  748  301           
15 29.11.20 100 (В) 3{10}  4000 м  слаб. ливневой снег  10/10 300 м кучево-дожд. 
[Cb cap]
+0.5 -1 90 -1  1024.4  -0.4  748  301         
18 29.11.20 100 (В) 4{10}  4000 м  дымка{ливн. осадки}  10/10 300 м 
[St]
+0.3 -1 91 -2  1023.9  -0.5  748  301    +0.6     
21 29.11.20 120 (ЮВ) 4000 м  дымка{ливн. осадки}  10/10 300 м 
[St]
+0.5 -0.8 91 1023.8  -0.1  748  301           
00 30.11.20 130 (ЮВ) 4000 м  дымка{ливн. осадки}  9/9 600 м 
[Sc]
+0.6 -0.4 93 +1  1024.3  0.5  748  301           
03 30.11.20 150 (ЮВ) 4000 м  дымка  10/10 300 м 
[St]
+0.6 -0.6 92 +1  1024.4  0.1  748  301  +0.3       
06 30.11.20 тихо ()   4000 м  дымка  10/10 300 м 
[St]
+0.3 -0.7 93 1024.7  0.3  748  301  +0.3    0.7  равномерный
мокрый или
старый снег
100% 
09 30.11.20 тихо ()   4000 м  слаб. ливневой снег  10/10 300 м кучево-дожд. 
[Cb cap]
+0.4 -0.7 92 1024.1  -0.6  748  301           
12 30.11.20 180 (Ю) 4000 м  слаб. ливневой снег  10/10 300 м кучево-дожд. 
[Cb cap]
+0.4 -0.6 93 +1  1023.6  -0.5  747  301           
15 30.11.20 190 (Ю) 4000 м  дымка{ливн. осадки}  8/8 600 м 
[Sc]
-0.7 -2.3 89 -2  1024.4  0.7  748  302         
18 30.11.20 180 (Ю) 10 км  {ливн. осадки}  9/9 600 м 
[Sc]
-0.9 -3.5 82 -2  1025  0.5  748  303    +0.5     
21 30.11.20 150 (ЮВ) 10 км    9/9 600 м 
[Sc]
-1.2 -3.7 83 -1  1025.1  0.1  748  303           
00 01.12.20 170 (Ю) 10 км    9/9 600 м 
[Sc]
-1.2 -3.6 84 -1  1025.4  0.3  749  303           
03 01.12.20 180 (Ю) 10 км    9/9 600 м 
[Sc]
-1.1 -3.4 84 -2  1026.2  0.8  749  304  -1.3         
06 01.12.20 180 (Ю) 10 км    8/8 600 м 
[Sc]
-1.8 -3.8 86 -1  1027.6  1.3  750  305  -1.8      равномерный
мокрый или
старый снег
100% 
09 01.12.20 170 (Ю) 10 км    8/0 средняя 
[Ac trans]
-0.9 -3.3 84 -2  1029  1.4  751  304           
12 01.12.20 180 (Ю) 10 км    8/3 600 м средняя 
[Sc|Ac trans]
-0.9 -3.5 82 1029.8  0.8  752  304           
15 01.12.20 200 (Ю) 4000 м  дымка  8/8 600 м 
[Sc]
-1.5 -3.3 88 -1  1031.4  1.5  753  305           
21 01.12.20 190 (Ю) 10 км    9/9 600 м 
[Sc]
-2 -4.7 82 -1  1034  1.2  755  307           
00 02.12.20 210 (ЮЗ) 10 км    9/9 600 м 
[Sc]
-1.8 -5.1 78 -1  1034.7  0.7  755  307           
03 02.12.20 тихо ()   10 км    8/8 600 м 
[Sc]
-2.6 -4.9 84 -3  1034.9  0.2  755  308  -2.6         
06 02.12.20 150 (ЮВ) 4000 м  дымка  9/9 600 м 
[Sc]
-5.9 -7.4 89 -6  1036  0.7  756  312  -6.1      равномерный
мокрый или
старый снег
100% 
09 02.12.20 170 (Ю) 4000 м  дымка  9/9 600 м 
[Sc]
-5.2 -6.6 90 -5  1036.4  0.5  756  311           
12 02.12.20 110 (В) 4000 м  дымка  9/9 600 м 
[Sc]
-4.9 -6.3 90 -4  1035.4  -0.9  756  311           
15 02.12.20 080 (В) 4000 м  дымка  9/9 600 м 
[Sc]
-3.9 -5.4 89 -3  1034.1  -1.2  755  309           
Время (UTC), дата Ветер
(°,м/с) 
Видим.   Явления Облачность Т
(°С)
Тd
(°С)
f(%) Тe
(°С)
Pmin
(гПа)
dP
(гПа)
Po
(мм)
O2
(г/м3)
Тmin Tmax R s Состояние
почвы

Для получения пояснительной информации подведите курсор к названию столбца.

ПОГОДА в Осташкове - архив

Всё, что Вы хотите узнать о погоде в Осташкове - удобно и подробно!

Выберите нужную дату (начиная с 1 января 2019* года) и нажмите кнопку "Найти".
Будут отображены архивные сводки погоды по пункту Осташков, начиная с указанной даты.


Отображать данные в формате CSV (для использования в таблицах Excel)


Внимание! Наш архив погоды предназначен исключительно для личного некоммерческого использования в познавательных целях. Если Вам необходимы официальные справки о состоянии погоды (для производственных, юридических, коммерческих и т.п. целей), обращайтесь в органы Росгидромета.

*Примечание: данная дата относится к архиву по метеостанциям СССР (Россия, СНГ, Балтия).
Архив по метеостанциям Зарубежной Европы и Азии (кроме Китая) хранится 10 дней, по другим регионам земного шара (Китай, Африка, Америка, Австралия, Океания) - 1 день.

Осташков - район местоположения метеостанции


Название, широта, долгота, высота метеостанции:
Осташков 57.1°ш. 33.1°д. 218 м над ур. моря [Российская Федерация]

Дополнительная информация

В oтличие oт бoльшинства пoгoдных сайтoв мы публикуем пoдрoбную метеoинфoрмацию в детальнoм прoфессиoнальнoм фoрмате.

Характеристики температуры и влажнoсти вoздуха измеряются на высoте 2 м в тени вдали oт зданий и деревьев.
Скoрoсть ветра измеряется на высoте 10 м (на урoвне рoста челoвека скoрoсть ветра ниже в 1.5-2 раза). Если метеoстанция нахoдится в гoрoде или в лесу, тo скoрoсть ветра занижена на 2-4 м/с пo сравнению с oткрытым местoм. Скoрoсть ветра над акватoриями крупных рек и oзёр, а также на вершинах хoлмoв на 2-5 м/с выше, чем в oбычных услoвиях.
Атмoсфернoе давление в разных тoчках местнoсти мoжет значительнo oтличаться oт давления на метеoстанции, в зависимoсти oт услoвий рельефа (при пoдъёме на 10 м давление пoнижается примернo на 1 мм рт.ст.).